EHI
0 0 0 0 0 0 0 0 0 0 0 0 0 0 0 0 0 0 0 0 0 0 0 0 0 0 0 0 0 0 0 0 0 0 0 0 0 0
0 0 0 0 0 0 0 0 0 0 0 0 0 0 0 0 0 0 0 0 0 0 0 0 0 0 0 0 0 0 0 0 0 0 0 0 0 0
0 0 0 0 0 0 0 0 0 0 0 0 0 0 0 0 0 0 0 0 0 0 0 0 0 0 0 0 0 0 0 0 0 0 0 0 0 0
0 0 0 0 0 0 0 0 0 0 0 0 0 0 0 0 0 0 0 0 0 0 0 0 0 0 0 0 0 0 0 0 0 0 0 0 0 0
0 0 0 0 0 0 0 0 0 0 0 0 0 0 0 0 0 0 0 0 0 0 0 0 0 0 0 0 0 0 0 0 0 0 0 0 0 0
0 0 0 0 0 0 0 0 0 0 0 0 0 0 0 0 0 0 0 0 0 0 0 0 0 0 0 0 0 0 0 0 0 0 0 0 0 0
0 0 0 0 0 0 0 0 0 0 0 0 0 0 0 0 0 0 0 0 0 0 0 0 0 0 0 0 0 0 0 0 0 0 0 0 0 0
0 0 0 0 0 0 0 0 0 0 0 0 0 0 0 0 0 0 0 0 0 0 0 0 0 0 0 0 0 0 0 0 0 0 0 0 0 0
0 0 0 0 0 0 0 0 0 0 0 0 0 0 0 0 0 0 0 0 0 0 0 0 0 0 0 0 0 0 0 0 0 0 0 0 0 0
0 0 0 0 0 0 0 0 0 0 0 0 0 0 0 0 0 0 0 0 0 0 0 0 0 0 0 0 0 0 0 0 0 0 0 0 0 0
0 0 0 0 0 0 0 0 0 0 0 0 0 0 0 0 0 0 0 0 0 0 0 0 0 0 0 0 0 0 0 0 0 0 0 0 0 0
0 0 0 0 0 0 0 0 0 0 0 0 0 0 0 0 0 0 0 0 0 0 0 0 0 0 0 0 0 0 0 0 0 0 0 0 0 0
0 0 0 0 0 0 0 0 0 0 0 0 0 0 0 0 0 0 0 0 0 0 0 0 0 0 0 0 0 0 0 0 0 0 0 0 0 0
0 0 0 0 0 0 0 0 0 0 0 0 0 0 0 0 0 0 0 0 0 0 0 0 0 0 0 0 0 0 0 0 0 0 0 0 0 0
0 0 0 0 0 0 0 0 0 0 0 0 0 0 0 0 0 0 0 0 0 0 0 0 0 0 0 0 0 0 0 0 0 0 0 0 0 0
0 0 0 0 0 0 0 0 0 0 0 0 0 0 0 0 0 0 0 0 0 0 0 0 0 0 0 0 0 0 0 0 0 0 0 0 0 0
0 0 0 0 0 0 0 0 0 0 0 0 0 0 0 0 0 0 0 0 0 0 0 0 0 0 0 0 0 0 0 0 0 0 0 0 0 0
0 0 0 0 0 0 0 0 0 0 0 0 0 0 0 0 0 0 0 0 0 0 0 0 0 0 0 0 0 0 0 0 0 0 0 0 0 0
0 0 0 0 0 0 0 0 0 0 0 0 0 0 0 0 0 0 0 0 0 0 0 0 0 0 0 0 0 0 0 0 0 0 0 0 0 0
0 0 0 0 0 0 0 0 0 0 0 0 0 0 0 0 0 0 0 0 0 0 0 0 0 0 0 0 0 0 0 0 0 0 0 0 0 0
0 0 0 0 0 0 0 0 0 0 0 0 0 0 0 0 0 0 0 0 0 0 0 0 0 0 0 0 0 0 0 0 0 0 0 0 0 0
0 0 0 0 0 0 0 0 0 0 0 0 0 0 0 0 0 0 0 0 0 0 0 0 0 0 0 0 0 0 0 0 0 0 0 0 0 0
0 0 0 0 0 0 0 0 0 0 0 0 0 0 0 0 0 0 0 0 0 0 0 0 0 0 0 0 0 0 0 0 0 0 0 0 0 0
Wind_Speed
4 4 4 3 3 3 4 4 4 4 4 3 2 2 2 2 3 3 4 5 6 7 7 7 7 6 7 7 6 6 6 6 6 6 7 7 8 9
3 4 4 3 3 3 4 4 4 5 5 3 3 3 3 3 4 5 5 6 7 7 8 8 7 7 7 6 6 6 6 6 7 7 7 7 7 8
4 5 5 5 4 4 4 4 4 5 6 5 4 3 5 5 4 5 5 5 5 7 8 8 8 8 7 6 6 6 6 7 8 8 8 8 7 7
5 5 5 4 5 5 4 5 5 5 6 7 5 4 6 5 5 6 5 5 5 6 8 8 8 8 7 8 8 7 7 8 8 8 8 8 8 8
5 5 5 5 6 5 5 6 5 5 5 6 6 5 4 4 5 5 6 5 5 6 7 8 8 9 9 9 8 8 8 8 8 8 8 8 8 8
5 5 6 6 6 6 6 6 6 6 6 6 6 5 5 4 4 4 5 4 5 5 6 6 7 9 9 9 9 8 9 9 9 8 8 8 8 8
5 6 6 7 8 7 6 6 6 6 5 6 6 5 5 4 4 4 5 5 5 4 4 4 5 5 5 7 8 9 10 10 9 9 9 9 9 9
6 6 6 7 8 9 10 10 9 8 7 6 6 7 7 6 5 5 5 5 5 3 4 5 4 5 5 5 7 9 9 10 10 9 10 10 9 9
6 6 5 5 7 6 8 9 10 12 12 9 9 9 8 7 6 6 6 7 7 4 4 6 5 6 5 6 9 10 10 9 9 9 9 9 9 9
6 6 6 6 6 6 7 7 7 8 9 9 9 9 8 7 7 8 8 7 7 5 5 6 5 5 5 5 8 10 9 8 8 9 9 9 8 8
6 6 6 6 8 9 7 7 7 7 8 10 11 11 11 11 9 6 6 6 6 6 5 5 5 5 5 5 5 7 8 8 8 9 9 9 8 8
5 6 7 8 9 9 7 7 7 7 7 7 8 9 9 9 11 9 7 7 6 6 5 5 4 3 4 3 3 4 5 7 8 8 8 8 7 5
5 5 5 8 9 9 8 7 8 8 7 6 6 6 5 5 6 6 7 7 7 7 4 4 4 4 5 4 4 4 4 4 4 5 7 8 8 7
5 5 5 8 9 9 7 8 9 8 5 5 5 4 5 5 5 5 7 7 8 8 7 6 5 5 5 5 5 4 4 4 4 4 4 6 8 8
5 8 9 9 9 7 7 8 8 5 4 5 5 5 4 5 5 5 5 6 7 7 6 7 6 6 6 6 5 4 4 4 4 4 4 4 4 5
6 7 9 8 6 6 6 5 4 4 4 5 5 5 4 4 4 4 5 4 5 4 4 5 6 7 6 6 5 5 5 4 4 4 4 4 4 4
5 4 3 3 3 3 3 3 4 4 4 4 4 4 4 4 4 4 4 4 5 5 4 3 4 5 6 5 5 5 5 5 5 4 4 5 5 5
5 4 4 3 4 4 4 4 4 4 4 4 4 4 5 4 4 4 4 4 5 5 4 4 3 3 3 4 5 6 5 5 4 4 4 5 5 5
4 4 3 4 4 4 4 4 4 4 4 4 4 4 5 5 4 4 4 4 5 5 4 4 4 4 5 6 4 5 5 4 4 4 5 5 5 5
4 4 4 4 4 4 4 4 4 4 4 4 4 4 4 5 4 5 4 5 5 5 4 4 4 5 6 5 4 3 5 5 4 5 4 3 3 4
4 4 4 4 4 4 4 4 4 4 4 4 4 4 4 5 5 5 5 6 5 4 5 5 4 5 4 3 3 3 3 4 4 4 4 3 3 3
4 4 4 4 4 4 4 4 4 4 5 4 4 4 4 4 5 5 5 5 4 4 5 4 3 2 3 4 4 4 3 2 3 4 5 5 4 4
5 5 5 5 5 4 4 5 5 5 4 4 4 4 4 4 4 5 5 5 5 4 4 3 3 2 3 3 4 3 3 3 2 2 2 3 4 5
Wind_Direction
249 241 240 243 242 255 251 246 249 255 258 248 239 237 278 281 303 291 289 298 294 295 297 299 298 295 286 277 269 262 261 260 257 257 244 241 244 246
257 251 246 242 240 241 246 250 248 251 259 267 266 280 287 281 289 286 282 287 277 283 286 287 289 286 281 276 271 267 265 262 259 253 242 243 248 250
266 259 254 250 244 241 238 242 244 244 252 264 269 272 274 275 278 278 280 280 273 272 276 276 278 277 272 271 272 268 268 265 260 246 242 240 245 252
272 265 261 254 248 246 240 238 241 245 250 258 264 264 266 272 277 277 277 279 277 275 271 270 269 268 268 268 267 263 263 262 259 244 241 239 241 246
279 274 270 264 258 254 247 244 243 245 249 254 260 263 265 266 274 274 275 273 278 275 267 263 263 264 265 263 261 260 259 258 249 242 243 244 243 245
284 279 273 268 266 265 259 251 249 247 246 249 255 257 258 261 263 267 270 271 274 274 268 267 263 262 258 258 257 256 253 249 242 242 242 243 245 247
282 279 277 276 275 270 265 257 249 247 247 249 253 256 254 250 251 260 266 276 275 268 276 270 264 258 252 250 252 252 251 244 239 240 241 244 244 245
282 282 278 271 272 270 268 264 255 250 249 251 254 251 252 253 255 256 263 268 269 258 272 276 267 262 259 253 252 253 249 245 244 242 242 242 243 245
283 281 277 276 277 272 271 269 263 258 254 252 252 252 254 251 252 256 257 260 265 271 271 271 263 264 263 257 256 252 246 245 247 247 246 245 244 245
283 281 279 279 276 281 279 274 270 264 259 254 252 255 257 257 251 254 258 267 273 262 253 264 264 265 269 262 252 246 243 243 245 249 249 246 243 242
285 283 282 281 280 280 277 275 277 278 272 262 260 262 262 259 255 249 248 252 260 260 245 253 261 273 270 259 251 247 244 245 247 249 247 246 240 240
290 287 282 285 282 282 275 274 275 282 284 274 264 259 258 254 248 242 240 244 255 260 239 244 254 262 268 251 249 255 253 246 246 247 244 242 239 239
291 292 291 296 288 281 276 273 279 287 283 278 272 266 258 250 246 245 244 242 246 252 246 245 250 249 252 267 266 261 255 255 249 243 240 237 235 232
290 294 294 296 293 290 287 288 289 291 285 280 273 269 266 260 255 252 253 254 256 259 256 246 244 243 250 259 264 261 259 254 247 244 240 232 229 229
290 296 297 296 292 289 291 294 291 283 280 280 277 274 273 272 268 261 260 261 263 262 256 246 241 240 242 248 253 255 263 261 244 239 237 236 231 226
292 294 296 295 292 294 294 290 284 284 281 279 285 283 281 273 267 261 259 259 260 262 255 248 243 237 242 246 246 247 246 246 241 242 242 242 239 232
293 287 289 295 293 293 295 293 288 283 282 282 283 285 283 279 273 269 260 255 253 257 262 258 249 246 248 244 245 244 242 247 247 242 238 242 241 235
291 285 288 289 291 294 297 298 298 296 293 290 286 285 283 281 279 273 261 256 255 255 254 253 251 252 248 250 238 242 240 244 248 247 240 241 246 240
283 283 284 287 288 289 290 291 291 292 291 286 284 284 283 280 278 275 268 260 260 259 257 249 239 235 239 247 236 228 241 246 244 248 243 245 251 249
273 275 276 276 276 278 281 283 286 288 284 281 279 280 279 279 278 276 272 266 265 262 258 248 241 239 242 252 257 256 243 244 244 247 253 263 272 270
275 274 272 272 272 273 274 275 276 278 280 280 278 278 277 276 276 277 275 275 269 262 258 256 256 264 269 252 243 253 257 250 254 252 250 250 257 256
273 274 274 272 270 269 270 269 269 270 274 272 273 276 278 277 275 276 276 275 269 262 264 268 270 259 249 242 250 258 269 276 272 268 261 253 244 237
269 269 268 269 267 266 263 263 264 266 266 269 270 272 274 275 277 277 276 274 271 264 265 266 263 255 252 247 247 251 257 267 271 277 279 276 268 270